DW8879 Weather Reports


time (UTC)temp
F
wind
direction
speed
knots
gust
knots
rain 1hr
in
rain 24hr
in
rain mn
in
humidity
%
barometer
mb
20260509022455 63 173 0.0 0.0 0.00 0.00 0.00 80 1011.8
20260509022349 63 173 0.0 0.0 0.00 0.00 0.00 80 1011.8
20260509022244 63 173 0.0 0.0 0.00 0.00 0.00 80 1011.8
20260509022139 63 173 0.0 0.0 0.00 0.00 0.00 80 1011.8
20260509022033 63 173 0.0 0.0 0.00 0.00 0.00 80 1011.8
20260509021929 63 173 0.0 0.0 0.00 0.00 0.00 80 1011.8
20260509021825 63 173 0.0 0.9 0.00 0.00 0.00 80 1011.8
20260509021723 63 173 0.0 0.9 0.00 0.00 0.00 80 1011.7
20260509021618 63 173 0.0 0.0 0.00 0.00 0.00 80 1011.7
20260509021515 63 173 0.0 0.0 0.00 0.00 0.00 80 1011.7
20260509021409 64 173 0.0 0.0 0.00 0.00 0.00 80 1011.6
20260509021302 64 173 0.0 0.0 0.00 0.00 0.00 79 1011.6
20260509020937 64 173 0.0 0.0 0.00 0.00 0.00 78 1011.6
20260509020833 64 173 0.0 0.0 0.00 0.00 0.00 78 1011.6
20260509020731 64 173 0.0 0.0 0.00 0.00 0.00 78 1011.6
20260509020625 64 173 0.0 0.0 0.00 0.00 0.00 78 1011.5
20260509020521 64 173 0.0 0.0 0.00 0.00 0.00 78 1011.5
20260509020416 64 173 0.0 0.0 0.00 0.00 0.00 78 1011.5
20260509020308 64 173 0.0 0.0 0.00 0.00 0.00 78 1011.6
20260509020201 64 173 0.0 0.0 0.00 0.00 0.00 77 1011.6
20260509020054 64 173 0.0 0.0 0.00 0.00 0.00 77 1011.5
20260509015948 65 173 0.0 0.0 0.00 0.00 0.00 77 1011.6
20260509015845 65 173 0.0 0.0 0.00 0.00 0.00 77 1011.6
20260509015742 65 173 0.0 0.0 0.00 0.00 0.00 77 1011.5
20260509015638 65 173 0.0 0.0 0.00 0.00 0.00 77 1011.6
20260509015534 65 173 0.0 0.0 0.00 0.00 0.00 77 1011.6
20260509015428 65 172 0.0 0.0 0.00 0.00 0.00 77 1011.6
20260509015324 65 172 0.0 0.0 0.00 0.00 0.00 76 1011.6
20260509015220 65 172 0.0 0.0 0.00 0.00 0.00 75 1011.5
20260509015118 65 172 0.0 0.0 0.00 0.00 0.00 75 1011.6
20260509015014 65 172 0.0 0.0 0.00 0.00 0.00 75 1011.6
20260509014907 65 172 0.0 0.0 0.00 0.00 0.00 75 1011.6
20260509014804 66 172 0.0 0.0 0.00 0.00 0.00 75 1011.6
20260509014702 66 172 0.0 0.0 0.00 0.00 0.00 75 1011.5
20260509014557 66 172 0.0 2.6 0.00 0.00 0.00 75 1011.5
20260509014451 66 172 0.0 2.6 0.00 0.00 0.00 74 1011.6
20260509014348 66 172 0.0 2.6 0.00 0.00 0.00 74 1011.5
20260509014019 66 172 0.0 2.6 0.00 0.00 0.00 74 1011.5
20260509013654 66 172 0.0 2.6 0.00 0.00 0.00 73 1011.6
20260509013550 66 202 0.0 2.6 0.00 0.00 0.00 73 1011.6
20260509013446 66 190 0.0 2.6 0.00 0.00 0.00 73 1011.5
20260509013339 66 173 0.0 2.6 0.00 0.00 0.00 73 1011.5
20260509013232 66 173 0.0 2.6 0.00 0.00 0.00 73 1011.6
20260509012911 67 119 0.0 2.6 0.00 0.00 0.00 73 1011.6
20260509012546 67 198 0.0 1.7 0.00 0.00 0.00 73 1011.6
20260509012443 67 198 0.0 1.7 0.00 0.00 0.00 73 1011.6
20260509012342 67 198 0.0 1.7 0.00 0.00 0.00 72 1011.5
20260509012238 67 198 0.0 1.7 0.00 0.00 0.00 72 1011.5
20260509012135 67 169 0.0 1.7 0.00 0.00 0.00 72 1011.5
20260509012028 67 169 0.0 1.7 0.00 0.00 0.00 72 1011.5
20260509011704 67 169 0.0 0.9 0.00 0.00 0.00 71 1011.5
20260509011340 68 169 0.0 0.9 0.00 0.00 0.00 71 1011.6
20260509011234 68 169 0.0 0.9 0.00 0.00 0.00 71 1011.5
20260509011130 68 169 0.0 0.9 0.00 0.00 0.00 71 1011.6
20260509011027 68 169 0.9 0.9 0.00 0.00 0.00 70 1011.6
20260509010922 68 156 0.9 4.3 0.00 0.00 0.00 70 1011.6
20260509010816 68 156 0.9 4.3 0.00 0.00 0.00 70 1011.6
20260509010711 68 156 0.9 4.3 0.00 0.00 0.00 70 1011.6
20260509010606 68 156 1.7 5.2 0.00 0.00 0.00 70 1011.5
20260509010504 68 156 1.7 5.2 0.00 0.00 0.00 70 1011.5
20260509010359 68 171 1.7 5.2 0.00 0.00 0.00 69 1011.5
20260509010033 68 168 0.9 5.2 0.00 0.00 0.00 69 1011.5
20260509005927 68 158 0.9 5.2 0.00 0.00 0.00 69 1011.5
20260509005824 68 183 1.7 5.2 0.00 0.00 0.00 69 1011.5
20260509005722 68 168 1.7 5.2 0.00 0.00 0.00 69 1011.6
20260509005617 68 184 1.7 5.2 0.00 0.00 0.00 69 1011.6
20260509005510 68 169 1.7 5.2 0.00 0.00 0.00 69 1011.6
20260509005402 68 200 1.7 5.2 0.00 0.00 0.00 69 1011.6
20260509005039 68 183 0.9 5.2 0.00 0.00 0.00 69 1011.5
20260509004936 68 180 0.9 5.2 0.00 0.00 0.00 69 1011.5
20260509004832 68 204 0.9 5.2 0.00 0.00 0.00 68 1011.5
20260509004250 68 141 0.0 2.6 0.00 0.00 0.00 68 1011.4
20260509003704 68 184 0.0 0.9 0.00 0.00 0.00 66 1011.3
20260509003341 69 271 0.0 0.0 0.00 0.00 0.00 66 1011.3
20260509003239 69 271 0.0 0.0 0.00 0.00 0.00 66 1011.3
20260509003133 69 273 0.0 0.0 0.00 0.00 0.00 66 1011.3
20260509003030 69 273 0.0 0.0 0.00 0.00 0.00 66 1011.2
20260509002446 70 183 0.0 2.6 0.00 0.00 0.00 63 1011.3
20260509002343 70 183 0.0 2.6 0.00 0.00 0.00 63 1011.2
20260509002239 70 183 0.0 2.6 0.00 0.00 0.00 64 1011.3
20260509002132 70 183 0.9 5.2 0.00 0.00 0.00 64 1011.3
20260509002027 70 183 0.9 5.2 0.00 0.00 0.00 63 1011.2
20260509001920 70 183 0.9 5.2 0.00 0.00 0.00 62 1011.2
20260509001814 70 183 0.9 5.2 0.00 0.00 0.00 62 1011.2
20260509001711 70 183 1.7 5.2 0.00 0.00 0.00 62 1011.1
20260509001608 70 183 1.7 5.2 0.00 0.00 0.00 62 1011.1
20260509001501 70 183 1.7 5.2 0.00 0.00 0.00 61 1011.1
20260509001354 70 164 1.7 5.2 0.00 0.00 0.00 61 1011.0
20260509001251 70 160 1.7 5.2 0.00 0.00 0.00 61 1011.0
20260509001148 70 173 1.7 5.2 0.00 0.00 0.00 61 1011.1
20260509001044 70 147 1.7 5.2 0.00 0.00 0.00 60 1011.0
20260509000938 70 159 1.7 5.2 0.00 0.00 0.00 60 1011.0
20260509000612 71 171 1.7 5.2 0.00 0.00 0.00 60 1011.0
20260509000506 71 195 1.7 5.2 0.00 0.00 0.00 60 1011.0
20260509000359 71 171 1.7 5.2 0.00 0.00 0.00 60 1011.0
20260509000256 71 191 1.7 5.2 0.00 0.00 0.00 59 1011.0
20260509000149 71 142 0.9 4.3 0.00 0.00 0.00 59 1011.0
20260509000043 71 161 0.9 4.3 0.00 0.00 0.00 59 1011.0
20260508235938 71 201 1.7 4.3 0.00 0.00 0.00 59 1011.0
20260508235834 71 182 1.7 4.3 0.00 0.00 0.00 58 1011.1
20260508235731 71 202 1.7 4.3 0.00 0.00 0.00 60 1011.1
20260508235626 71 152 1.7 6.1 0.00 0.00 0.00 59 1011.1
20260508235519 71 167 1.7 6.1 0.00 0.00 0.00 59 1011.1
20260508235412 71 186 1.7 6.1 0.00 0.00 0.00 59 1011.1
20260508235309 71 190 1.7 6.1 0.00 0.00 0.00 58 1011.2
20260508235207 71 200 1.7 6.1 0.00 0.00 0.00 57 1011.2
20260508235103 71 139 1.7 6.1 0.00 0.00 0.00 57 1011.2
20260508234957 71 192 1.7 6.1 0.00 0.00 0.00 57 1011.2
20260508234634 71 180 2.6 6.1 0.00 0.00 0.00 57 1011.2
20260508234531 71 155 2.6 6.1 0.00 0.00 0.00 57 1011.2
20260508234429 71 203 2.6 6.1 0.00 0.00 0.00 58 1011.2
20260508234103 72 179 2.6 6.1 0.00 0.00 0.00 57 1011.2
20260508234000 72 209 2.6 6.1 0.00 0.00 0.00 56 1011.2
20260508233855 72 193 2.6 6.1 0.00 0.00 0.00 56 1011.2
20260508233530 72 167 1.7 6.1 0.00 0.00 0.00 57 1011.2
20260508233427 72 175 1.7 6.1 0.00 0.00 0.00 56 1011.3
20260508233322 72 187 1.7 6.1 0.00 0.00 0.00 58 1011.3
20260508233217 72 202 1.7 6.1 0.00 0.00 0.00 57 1011.3
20260508233109 72 169 1.7 6.1 0.00 0.00 0.00 58 1011.2
20260508233007 72 188 1.7 6.1 0.00 0.00 0.00 57 1011.2
20260508232903 72 188 2.6 6.1 0.00 0.00 0.00 57 1011.3
20260508232800 72 198 2.6 6.1 0.00 0.00 0.00 57 1011.3
20260508232658 72 163 2.6 6.1 0.00 0.00 0.00 57 1011.3
20260508232552 72 188 2.6 6.1 0.00 0.00 0.00 57 1011.3
20260508232448 72 205 3.5 6.1 0.00 0.00 0.00 56 1011.3
20260508232344 72 186 3.5 6.1 0.00 0.00 0.00 56 1011.3
20260508232240 72 130 3.5 6.1 0.00 0.00 0.00 56 1011.3
20260508232134 72 140 2.6 6.1 0.00 0.00 0.00 56 1011.3
20260508232028 72 144 2.6 6.1 0.00 0.00 0.00 57 1011.3
20260508231706 72 179 2.6 6.1 0.00 0.00 0.00 58 1011.3
20260508231601 72 178 2.6 5.2 0.00 0.00 0.00 57 1011.3
20260508231454 72 171 2.6 5.2 0.00 0.00 0.00 58 1011.3
20260508231347 72 155 2.6 5.2 0.00 0.00 0.00 58 1011.3
20260508231242 72 209 2.6 5.2 0.00 0.00 0.00 57 1011.3
20260508231135 72 171 2.6 5.2 0.00 0.00 0.00 57 1011.3
20260508231030 72 192 2.6 5.2 0.00 0.00 0.00 57 1011.2
20260508230926 72 178 2.6 5.2 0.00 0.00 0.00 57 1011.2
20260508230822 72 216 2.6 5.2 0.00 0.00 0.00 57 1011.3
20260508230716 72 195 2.6 5.2 0.00 0.00 0.00 56 1011.3
20260508230612 72 173 2.6 5.2 0.00 0.00 0.00 56 1011.3
20260508230509 72 200 2.6 5.2 0.00 0.00 0.00 56 1011.3
20260508230407 72 169 2.6 5.2 0.00 0.00 0.00 56 1011.3
20260508230301 72 198 2.6 5.2 0.00 0.00 0.00 55 1011.4
20260508230154 72 161 2.6 5.2 0.00 0.00 0.00 56 1011.4
20260508230046 72 188 2.6 5.2 0.00 0.00 0.00 56 1011.3
20260508225500 73 157 2.6 6.1 0.00 0.00 0.00 55 1011.5
20260508225355 73 161 3.5 6.1 0.00 0.00 0.00 55 1011.5
20260508225249 73 171 3.5 6.1 0.00 0.00 0.00 55 1011.5
20260508224703 73 153 2.6 6.1 0.00 0.00 0.00 54 1011.5
20260508224600 73 213 1.7 6.1 0.00 0.00 0.00 54 1011.6
20260508224453 73 182 1.7 6.1 0.00 0.00 0.00 54 1011.6
20260508224130 73 183 1.7 6.1 0.00 0.00 0.00 55 1011.6
20260508224022 73 163 1.7 6.1 0.00 0.00 0.00 55 1011.6
20260508223918 73 209 1.7 6.1 0.00 0.00 0.00 54 1011.6
20260508223811 73 163 1.7 6.1 0.00 0.00 0.00 56 1011.5
20260508223704 73 103 2.6 6.1 0.00 0.00 0.00 55 1011.5
20260508223557 73 124 3.5 6.1 0.00 0.00 0.00 55 1011.5
20260508223450 73 187 3.5 6.1 0.00 0.00 0.00 54 1011.5
20260508223125 73 235 3.5 6.1 0.00 0.00 0.00 56 1011.5
20260508223021 73 185 3.5 6.1 0.00 0.00 0.00 55 1011.4
20260508222914 73 187 2.6 6.1 0.00 0.00 0.00 54 1011.4
20260508222811 73 194 2.6 6.1 0.00 0.00 0.00 54 1011.5
20260508222443 73 211 1.7 7.8 0.00 0.00 0.00 54 1011.6
20260508222339 73 155 2.6 7.8 0.00 0.00 0.00 55 1011.6
20260508222233 73 202 2.6 7.8 0.00 0.00 0.00 55 1011.6
20260508222129 73 136 2.6 7.8 0.00 0.00 0.00 55 1011.6
20260508222025 73 179 2.6 7.8 0.00 0.00 0.00 54 1011.7
20260508221705 73 170 3.5 7.8 0.00 0.00 0.00 53 1011.7
20260508221600 73 169 3.5 7.8 0.00 0.00 0.00 53 1011.7
20260508220758 73 211 3.5 7.8 0.00 0.00 0.00 51 1011.8
20260508220435 73 193 3.5 6.1 0.00 0.00 0.00 52 1011.8
20260508220333 73 166 3.5 7.8 0.00 0.00 0.00 52 1011.7
20260508220226 73 155 4.3 7.8 0.00 0.00 0.00 52 1011.7
20260508220120 73 195 3.5 7.8 0.00 0.00 0.00 52 1011.8
20260508220013 73 196 3.5 7.8 0.00 0.00 0.00 52 1011.7
20260508215907 73 165 4.3 7.8 0.00 0.00 0.00 53 1011.7
20260508215801 73 188 3.5 7.8 0.00 0.00 0.00 53 1011.7
20260508215653 73 216 3.5 7.8 0.00 0.00 0.00 52 1011.8
20260508215547 73 195 3.5 7.8 0.00 0.00 0.00 52 1011.8
20260508215445 73 180 3.5 7.8 0.00 0.00 0.00 52 1011.8
20260508215342 73 194 3.5 7.8 0.00 0.00 0.00 51 1011.7
20260508214801 74 192 3.5 7.8 0.00 0.00 0.00 53 1011.8
20260508214657 74 193 3.5 7.8 0.00 0.00 0.00 53 1011.7
20260508214553 74 185 2.6 7.8 0.00 0.00 0.00 53 1011.7
20260508214450 74 168 2.6 7.8 0.00 0.00 0.00 54 1011.7
20260508214348 74 187 2.6 7.8 0.00 0.00 0.00 53 1011.7
20260508214244 74 187 2.6 7.8 0.00 0.00 0.00 55 1011.7
20260508214142 74 198 2.6 7.8 0.00 0.00 0.00 55 1011.7
20260508214037 74 157 3.5 7.8 0.00 0.00 0.00 54 1011.7
20260508213933 74 164 2.6 7.8 0.00 0.00 0.00 54 1011.7
20260508213831 74 161 3.5 7.8 0.00 0.00 0.00 56 1011.7
20260508213724 74 215 3.5 7.8 0.00 0.00 0.00 53 1011.6
20260508213617 74 166 3.5 7.8 0.00 0.00 0.00 52 1011.7
20260508213514 74 161 3.5 7.8 0.00 0.00 0.00 51 1011.7
20260508213410 74 169 2.6 7.8 0.00 0.00 0.00 51 1011.7
20260508213304 74 197 2.6 7.8 0.00 0.00 0.00 51 1011.8
20260508213202 74 142 1.7 7.8 0.00 0.00 0.00 51 1011.8
20260508213056 74 239 1.7 8.7 0.00 0.00 0.00 53 1011.8
20260508212951 74 148 1.7 8.7 0.00 0.00 0.00 53 1011.8
20260508212845 74 196 1.7 8.7 0.00 0.00 0.00 54 1011.8
20260508212739 74 216 1.7 8.7 0.00 0.00 0.00 54 1011.9
20260508212632 74 233 1.7 8.7 0.00 0.00 0.00 52 1011.9
20260508212525 74 202 1.7 8.7 0.00 0.00 0.00 53 1011.9
20260508212203 74 205 2.6 8.7 0.00 0.00 0.00 51 1011.9
20260508212056 74 205 3.5 8.7 0.00 0.00 0.00 50 1012.0
20260508211953 74 138 3.5 8.7 0.00 0.00 0.00 51 1012.0
20260508211846 74 209 2.6 8.7 0.00 0.00 0.00 51 1012.0
20260508211741 74 189 2.6 8.7 0.00 0.00 0.00 51 1012.0
20260508211418 74 172 2.6 8.7 0.00 0.00 0.00 51 1012.0
20260508211313 74 163 2.6 8.7 0.00 0.00 0.00 51 1012.1
20260508211206 74 155 2.6 8.7 0.00 0.00 0.00 49 1012.0
20260508211102 74 217 2.6 7.8 0.00 0.00 0.00 49 1012.1
20260508210956 74 202 3.5 7.8 0.00 0.00 0.00 51 1012.1
20260508210852 74 203 3.5 7.8 0.00 0.00 0.00 53 1012.1
20260508210524 74 171 3.5 7.8 0.00 0.00 0.00 51 1012.1
20260508205721 74 202 3.5 7.0 0.00 0.00 0.00 51 1012.1
20260508205619 74 216 3.5 7.0 0.00 0.00 0.00 51 1012.1
20260508205511 74 173 3.5 7.0 0.00 0.00 0.00 51 1012.1
20260508205404 74 128 2.6 7.0 0.00 0.00 0.00 51 1012.1
20260508205300 74 190 2.6 7.0 0.00 0.00 0.00 51 1012.1
20260508205153 74 182 2.6 7.0 0.00 0.00 0.00 50 1012.2
20260508205051 74 173 2.6 7.0 0.00 0.00 0.00 54 1012.2
20260508204944 74 157 2.6 6.1 0.00 0.00 0.00 55 1012.2
20260508204840 74 217 2.6 6.1 0.00 0.00 0.00 51 1012.2
20260508204736 74 222 2.6 6.1 0.00 0.00 0.00 55 1012.2
20260508204629 74 173 1.7 6.1 0.00 0.00 0.00 53 1012.2
20260508204308 74 153 1.7 6.1 0.00 0.00 0.00 50 1012.3
20260508204201 74 171 1.7 6.1 0.00 0.00 0.00 52 1012.3
20260508204056 75 165 1.7 6.1 0.00 0.00 0.00 51 1012.3
20260508203952 75 179 2.6 6.1 0.00 0.00 0.00 52 1012.3
20260508203412 74 176 2.6 8.7 0.00 0.00 0.00 54 1012.4
20260508203309 74 195 2.6 8.7 0.00 0.00 0.00 51 1012.3
20260508203207 74 227 3.5 8.7 0.00 0.00 0.00 50 1012.3
20260508203102 74 197 3.5 8.7 0.00 0.00 0.00 51 1012.3
20260508202957 74 161 3.5 8.7 0.00 0.00 0.00 49 1012.4
20260508202852 74 173 3.5 8.7 0.00 0.00 0.00 54 1012.3
20260508202747 74 206 3.5 8.7 0.00 0.00 0.00 51 1012.3
20260508202422 74 138 3.5 8.7 0.00 0.00 0.00 49 1012.4
20260508202053 74 148 3.5 8.7 0.00 0.00 0.00 51 1012.4
20260508201507 74 198 3.5 8.7 0.00 0.00 0.00 52 1012.5
20260508201400 74 229 3.5 8.7 0.00 0.00 0.00 49 1012.6
20260508201038 74 209 3.5 8.7 0.00 0.00 0.00 47 1012.6
20260508200935 74 171 3.5 8.7 0.00 0.00 0.00 48 1012.7
20260508200831 74 176 2.6 9.6 0.00 0.00 0.00 53 1012.7
20260508200729 74 215 2.6 9.6 0.00 0.00 0.00 55 1012.7
20260508200626 74 196 2.6 9.6 0.00 0.00 0.00 50 1012.7
20260508200520 74 198 2.6 9.6 0.00 0.00 0.00 51 1012.6
20260508200417 74 210 2.6 9.6 0.00 0.00 0.00 49 1012.7
20260508200052 75 156 2.6 9.6 0.00 0.00 0.00 51 1012.7
20260508195948 75 177 2.6 9.6 0.00 0.00 0.00 53 1012.7
20260508195843 75 180 2.6 9.6 0.00 0.00 0.00 54 1012.7
20260508195523 74 209 3.5 9.6 0.00 0.00 0.00 55 1012.8
20260508195419 74 221 3.5 9.6 0.00 0.00 0.00 54 1012.9
20260508195312 74 196 3.5 9.6 0.00 0.00 0.00 53 1012.9
20260508194952 74 190 2.6 9.6 0.00 0.00 0.00 51 1013.0
20260508194845 74 148 2.6 7.8 0.00 0.00 0.00 52 1013.1
20260508194742 74 178 2.6 7.8 0.00 0.00 0.00 52 1013.0
20260508194635 74 175 2.6 7.8 0.00 0.00 0.00 51 1013.0
20260508194531 74 194 2.6 7.0 0.00 0.00 0.00 52 1013.1
20260508194429 74 167 1.7 7.0 0.00 0.00 0.00 50 1013.1
20260508194326 74 173 1.7 7.0 0.00 0.00 0.00 52 1013.1
20260508194223 74 145 1.7 8.7 0.00 0.00 0.00 50 1013.1
20260508194120 74 206 1.7 8.7 0.00 0.00 0.00 53 1013.1
20260508194018 74 182 0.9 8.7 0.00 0.00 0.00 54 1013.1
20260508193914 74 134 1.7 8.7 0.00 0.00 0.00 51 1013.1
20260508193810 74 109 1.7 8.7 0.00 0.00 0.00 54 1013.1
20260508193707 73 169 1.7 8.7 0.00 0.00 0.00 56 1013.0
20260508193603 73 142 1.7 8.7 0.00 0.00 0.00 55 1012.9
20260508193455 73 138 2.6 8.7 0.00 0.00 0.00 52 1012.9
20260508193353 73 157 2.6 8.7 0.00 0.00 0.00 51 1013.0
20260508193248 73 166 3.5 8.7 0.00 0.00 0.00 54 1013.0
20260508193145 73 168 3.5 8.7 0.00 0.00 0.00 55 1013.0
20260508193042 73 215 3.5 8.7 0.00 0.00 0.00 51 1012.9
20260508192717 73 209 2.6 8.7 0.00 0.00 0.00 52 1012.9
20260508192354 74 179 1.7 8.7 0.00 0.00 0.00 51 1012.9
20260508192247 74 196 1.7 7.8 0.00 0.00 0.00 51 1013.0
20260508192144 74 188 1.7 5.2 0.00 0.00 0.00 56 1013.0
20260508192040 74 184 1.7 5.2 0.00 0.00 0.00 54 1013.0
20260508191933 74 200 1.7 5.2 0.00 0.00 0.00 54 1013.0
20260508191831 74 265 1.7 6.1 0.00 0.00 0.00 52 1013.0
20260508191503 74 168 1.7 6.1 0.00 0.00 0.00 55 1013.1
20260508191356 74 190 1.7 6.1 0.00 0.00 0.00 54 1013.1
20260508191253 73 200 1.7 6.1 0.00 0.00 0.00 53 1013.2
20260508191149 73 89 1.7 6.1 0.00 0.00 0.00 57 1013.1
20260508191042 73 204 1.7 6.1 0.00 0.00 0.00 57 1013.2
20260508190939 73 179 1.7 6.1 0.00 0.00 0.00 49 1013.3
20260508190619 73 198 1.7 6.1 0.00 0.00 0.00 50 1013.3
20260508190513 73 156 1.7 6.1 0.00 0.00 0.00 50 1013.4
20260508190405 73 162 1.7 6.1 0.00 0.00 0.00 51 1013.5
20260508190300 73 210 1.7 6.1 0.00 0.00 0.00 50 1013.5
20260508185934 73 198 1.7 6.1 0.00 0.00 0.00 52 1013.6
20260508185830 73 232 1.7 5.2 0.00 0.00 0.00 52 1013.5
20260508185725 73 135 0.9 5.2 0.00 0.00 0.00 52 1013.6
20260508185622 73 213 0.9 5.2 0.00 0.00 0.00 53 1013.5
20260508185515 73 216 0.9 5.2 0.00 0.00 0.00 52 1013.5
20260508185413 73 148 0.9 5.2 0.00 0.00 0.00 51 1013.5
20260508185310 73 153 0.9 5.2 0.00 0.00 0.00 55 1013.5
20260508185204 72 88 0.9 5.2 0.00 0.00 0.00 55 1013.5
20260508185100 72 301 0.9 5.2 0.00 0.00 0.00 54 1013.6
20260508184957 72 113 1.7 5.2 0.00 0.00 0.00 56 1013.6
20260508184849 72 175 1.7 5.2 0.00 0.00 0.00 51 1013.6
20260508184747 72 192 1.7 6.1 0.00 0.00 0.00 54 1013.6
20260508184640 72 222 2.6 6.1 0.00 0.00 0.00 54 1013.7
20260508184534 72 242 2.6 6.1 0.00 0.00 0.00 52 1013.7
20260508184427 72 347 2.6 6.1 0.00 0.00 0.00 51 1013.7
20260508184107 72 159 3.5 6.1 0.00 0.00 0.00 50 1013.8
20260508183959 72 213 2.6 6.1 0.00 0.00 0.00 50 1013.8
20260508183856 72 169 2.6 6.1 0.00 0.00 0.00 52 1013.9
20260508183752 72 172 2.6 7.8 0.00 0.00 0.00 53 1013.9
20260508183647 72 159 2.6 7.8 0.00 0.00 0.00 49 1013.9
20260508183544 72 185 2.6 7.8 0.00 0.00 0.00 51 1013.9
20260508183437 72 175 2.6 7.8 0.00 0.00 0.00 49 1013.9
20260508183333 72 193 2.6 7.8 0.00 0.00 0.00 51 1013.9
20260508182748 72 196 3.5 7.8 0.00 0.00 0.00 56 1014.1
20260508182642 72 210 3.5 7.8 0.00 0.00 0.00 56 1014.2
20260508182537 72 258 3.5 7.8 0.00 0.00 0.00 54 1014.2
20260508182435 72 217 3.5 7.8 0.00 0.00 0.00 56 1014.2
20260508182331 72 212 3.5 7.8 0.00 0.00 0.00 52 1014.3
20260508182227 72 196 3.5 7.8 0.00 0.00 0.00 52 1014.4
20260508182122 72 162 2.6 7.8 0.00 0.00 0.00 51 1014.3
20260508182017 72 198 2.6 7.8 0.00 0.00 0.00 52 1014.4
20260508181914 72 173 2.6 7.8 0.00 0.00 0.00 55 1014.4
20260508181808 72 200 1.7 6.1 0.00 0.00 0.00 56 1014.4
20260508181446 71 194 2.6 7.0 0.00 0.00 0.00 53 1014.5
20260508181341 71 203 2.6 7.0 0.00 0.00 0.00 52 1014.5
20260508181015 72 184 2.6 7.0 0.00 0.00 0.00 54 1014.7
20260508180910 72 294 1.7 7.0 0.00 0.00 0.00 52 1014.8
20260508180806 72 136 1.7 7.0 0.00 0.00 0.00 54 1014.9
20260508180702 72 201 1.7 7.8 0.00 0.00 0.00 51 1015.0
20260508180556 72 155 1.7 7.8 0.00 0.00 0.00 53 1015.0
20260508180452 72 170 1.7 7.8 0.00 0.00 0.00 52 1015.0
20260508180349 72 222 1.7 7.8 0.00 0.00 0.00 52 1015.0
20260508180246 72 165 1.7 7.8 0.00 0.00 0.00 59 1015.0
20260508180140 71 297 2.6 7.8 0.00 0.00 0.00 57 1015.0
20260508180038 71 297 2.6 7.8 0.00 0.00 0.00 54 1015.0
20260508175934 71 277 3.5 7.8 0.00 0.00 0.00 52 1015.0
20260508175608 71 177 3.5 7.8 0.00 0.00 0.00 51 1015.0
20260508175502 71 167 2.6 7.8 0.00 0.00 0.00 52 1014.9
20260508175359 71 204 2.6 7.8 0.00 0.00 0.00 53 1014.9
20260508175256 71 231 2.6 7.8 0.00 0.00 0.00 51 1014.9
20260508175149 71 214 2.6 7.8 0.00 0.00 0.00 50 1014.9
20260508175046 71 203 2.6 7.8 0.00 0.00 0.00 50 1015.0
20260508174941 71 141 2.6 7.8 0.00 0.00 0.00 51 1015.0
20260508174834 72 182 2.6 7.8 0.00 0.00 0.00 49 1015.0
20260508174726 72 175 2.6 5.2 0.00 0.00 0.00 54 1015.0
20260508174407 71 211 2.6 7.8 0.00 0.00 0.00 52 1015.2
20260508174304 71 231 2.6 7.8 0.00 0.00 0.00 53 1015.1
20260508174200 71 202 2.6 7.8 0.00 0.00 0.00 50 1015.1
20260508174053 71 250 1.7 7.8 0.00 0.00 0.00 53 1015.2
20260508173949 71 198 1.7 7.8 0.00 0.00 0.00 52 1015.2
20260508173843 71 180 1.7 7.8 0.00 0.00 0.00 58 1015.2
20260508173739 71 182 1.7 7.8 0.00 0.00 0.00 56 1015.2
20260508173634 71 187 2.6 7.8 0.00 0.00 0.00 52 1015.2
20260508173530 71 173 2.6 7.8 0.00 0.00 0.00 55 1015.3
20260508173428 71 196 2.6 7.8 0.00 0.00 0.00 53 1015.3
20260508173320 71 200 2.6 7.8 0.00 0.00 0.00 55 1015.4
20260508172952 70 107 2.6 7.8 0.00 0.00 0.00 53 1015.4
20260508172848 70 201 2.6 7.8 0.00 0.00 0.00 51 1015.4
20260508172521 71 222 1.7 7.0 0.00 0.00 0.00 54 1015.5
20260508172415 71 159 1.7 7.0 0.00 0.00 0.00 55 1015.5
20260508172307 71 192 1.7 6.1 0.00 0.00 0.00 55 1015.5
20260508172201 71 166 1.7 6.1 0.00 0.00 0.00 54 1015.5
20260508172055 71 154 1.7 6.1 0.00 0.00 0.00 54 1015.5
20260508171728 70 135 2.6 6.1 0.00 0.00 0.00 55 1015.6
20260508171403 70 292 3.5 6.1 0.00 0.00 0.00 53 1015.8
20260508170821 70 165 2.6 7.0 0.00 0.00 0.00 54 1015.8
20260508170714 70 157 1.7 7.0 0.00 0.00 0.00 56 1015.7
20260508170609 70 210 1.7 7.0 0.00 0.00 0.00 55 1015.8
20260508170248 70 192 2.6 8.7 0.00 0.00 0.00 55 1015.8
20260508170143 70 221 2.6 8.7 0.00 0.00 0.00 56 1015.8
20260508170036 70 226 2.6 8.7 0.00 0.00 0.00 58 1016.0
20260508165929 70 218 2.6 8.7 0.00 0.00 0.00 58 1016.0
20260508165826 70 295 3.5 8.7 0.00 0.00 0.00 54 1016.0
20260508165720 70 163 3.5 8.7 0.00 0.00 0.00 53 1016.1
20260508165614 70 228 3.5 8.7 0.00 0.00 0.00 55 1016.0
20260508165510 70 184 3.5 8.7 0.00 0.00 0.00 54 1016.1
20260508165406 70 166 3.5 8.7 0.00 0.00 0.00 54 1016.0
20260508165306 70 206 3.5 8.7 0.00 0.00 0.00 54 1016.0
20260508165156 70 192 3.5 8.7 0.00 0.00 0.00 58 1016.0
20260508164830 70 219 2.6 8.7 0.00 0.00 0.00 54 1016.0
20260508164727 70 197 2.6 8.7 0.00 0.00 0.00 54 1016.0
20260508164625 70 166 1.7 8.7 0.00 0.00 0.00 53 1016.0
20260508164518 70 170 1.7 8.7 0.00 0.00 0.00 58 1016.0
20260508163935 70 198 0.9 5.2 0.00 0.00 0.00 59 1016.1
20260508163831 70 151 0.9 5.2 0.00 0.00 0.00 60 1016.1
20260508163724 70 225 1.7 5.2 0.00 0.00 0.00 58 1016.1
20260508163359 70 211 2.6 5.2 0.00 0.00 0.00 56 1016.2
20260508163255 70 169 1.7 5.2 0.00 0.00 0.00 56 1016.2
20260508163148 70 198 1.7 7.0 0.00 0.00 0.00 57 1016.2
20260508163042 70 144 1.7 7.0 0.00 0.00 0.00 60 1016.2
20260508162938 69 167 1.7 7.0 0.00 0.00 0.00 56 1016.3
20260508162832 69 201 1.7 7.0 0.00 0.00 0.00 61 1016.4
20260508162729 69 144 2.6 7.0 0.00 0.00 0.00 58 1016.4
20260508162624 70 215 2.6 7.0 0.00 0.00 0.00 57 1016.5
20260508162306 69 155 2.6 7.0 0.00 0.00 0.00 61 1016.7
20260508162156 69 123 3.5 7.8 0.00 0.00 0.00 59 1016.6
20260508162054 69 210 3.5 7.8 0.00 0.00 0.00 60 1016.6
20260508161728 69 196 2.6 7.8 0.00 0.00 0.00 54 1016.7
20260508161621 69 182 2.6 7.8 0.00 0.00 0.00 61 1016.7
20260508161518 69 205 2.6 7.8 0.00 0.00 0.00 60 1016.8
20260508161153 69 192 2.6 7.8 0.00 0.00 0.00 58 1016.9
20260508161048 69 196 3.5 7.8 0.00 0.00 0.00 57 1016.9
20260508160946 69 194 3.5 7.8 0.00 0.00 0.00 61 1016.9
20260508160841 68 202 3.5 7.8 0.00 0.00 0.00 60 1016.9
20260508160734 68 200 3.5 7.8 0.00 0.00 0.00 57 1016.9
20260508160632 68 186 3.5 7.8 0.00 0.00 0.00 56 1016.9
20260508160525 68 198 3.5 7.8 0.00 0.00 0.00 57 1016.9
20260508160421 68 216 3.5 7.8 0.00 0.00 0.00 58 1017.0
20260508160317 68 194 3.5 7.8 0.00 0.00 0.00 57 1016.9
20260508160215 68 159 3.5 7.8 0.00 0.00 0.00 57 1016.9
20260508160109 68 173 3.5 7.0 0.00 0.00 0.00 57 1016.9
20260508160001 68 165 3.5 7.0 0.00 0.00 0.00 58 1017.0
20260508155854 68 205 3.5 7.0 0.00 0.00 0.00 62 1017.0
20260508155750 68 184 3.5 7.0 0.00 0.00 0.00 60 1017.0
20260508155207 68 195 3.5 7.0 0.00 0.00 0.00 61 1017.0
20260508155103 68 200 2.6 8.7 0.00 0.00 0.00 61 1016.9
20260508154956 68 160 2.6 8.7 0.00 0.00 0.00 60 1016.9
20260508154851 68 202 2.6 8.7 0.00 0.00 0.00 59 1016.9
20260508154744 68 214 2.6 8.7 0.00 0.00 0.00 59 1016.8
20260508154641 68 167 2.6 8.7 0.00 0.00 0.00 61 1016.8
20260508154537 68 172 2.6 8.7 0.00 0.00 0.00 61 1016.8
20260508154429 67 176 2.6 8.7 0.00 0.00 0.00 64 1016.8
20260508154327 67 193 2.6 8.7 0.00 0.00 0.00 61 1016.8
20260508154223 67 202 2.6 8.7 0.00 0.00 0.00 61 1016.8
20260508154120 67 205 2.6 8.7 0.00 0.00 0.00 61 1016.8
20260508154017 67 227 3.5 8.7 0.00 0.00 0.00 60 1016.8
20260508153913 67 234 3.5 8.7 0.00 0.00 0.00 59 1016.8
20260508153806 67 211 3.5 8.7 0.00 0.00 0.00 62 1016.8
20260508153704 67 167 3.5 8.7 0.00 0.00 0.00 61 1016.8
20260508153602 67 189 3.5 8.7 0.00 0.00 0.00 60 1016.8
20260508153237 67 184 3.5 8.7 0.00 0.00 0.00 61 1016.9
20260508153132 67 208 3.5 8.7 0.00 0.00 0.00 61 1016.9
20260508153028 67 177 3.5 6.1 0.00 0.00 0.00 59 1016.9
20260508152659 67 179 3.5 6.1 0.00 0.00 0.00 61 1017.0
20260508152338 66 196 3.5 6.1 0.00 0.00 0.00 62 1016.9
20260508152233 66 198 3.5 6.1 0.00 0.00 0.00 60 1017.0
20260508152129 66 209 3.5 6.1 0.00 0.00 0.00 61 1017.0
20260508152021 66 184 3.5 6.1 0.00 0.00 0.00 59 1017.0
20260508151658 66 178 2.6 6.1 0.00 0.00 0.00 62 1017.0
20260508151552 66 178 2.6 6.1 0.00 0.00 0.00 64 1017.0
20260508151446 66 168 2.6 6.1 0.00 0.00 0.00 64 1017.1
20260508151342 66 236 2.6 6.1 0.00 0.00 0.00 63 1017.0
20260508151013 66 180 2.6 6.1 0.00 0.00 0.00 67 1017.0
20260508150911 66 215 2.6 6.1 0.00 0.00 0.00 68 1017.0
20260508150549 65 190 2.6 6.1 0.00 0.00 0.00 64 1017.1
20260508150445 65 174 2.6 6.1 0.00 0.00 0.00 63 1017.1
20260508150339 65 204 1.7 6.1 0.00 0.00 0.00 63 1017.1
20260508150233 65 181 1.7 5.2 0.00 0.00 0.00 66 1017.1
20260508150130 65 142 2.6 5.2 0.00 0.00 0.00 66 1017.1
20260508150027 65 234 2.6 5.2 0.00 0.00 0.00 65 1017.2
20260508145925 65 201 2.6 5.2 0.00 0.00 0.00 66 1017.3
20260508145819 65 194 2.6 5.2 0.00 0.00 0.00 67 1017.3
20260508145457 65 193 2.6 5.2 0.00 0.00 0.00 66 1017.4
20260508145352 65 194 2.6 5.2 0.00 0.00 0.00 66 1017.4
20260508145245 65 202 2.6 5.2 0.00 0.00 0.00 67 1017.4
20260508145138 65 175 2.6 5.2 0.00 0.00 0.00 69 1017.4
20260508145033 64 188 2.6 6.1 0.00 0.00 0.00 67 1017.4
20260508144925 64 179 2.6 6.1 0.00 0.00 0.00 68 1017.4
20260508144822 64 209 2.6 6.1 0.00 0.00 0.00 68 1017.4
20260508144720 64 218 2.6 6.1 0.00 0.00 0.00 70 1017.5
20260508144352 64 231 3.5 6.1 0.00 0.00 0.00 68 1017.7
20260508144247 64 166 3.5 6.1 0.00 0.00 0.00 68 1017.7
20260508144141 64 194 3.5 6.1 0.00 0.00 0.00 69 1017.7
20260508144035 64 212 2.6 7.0 0.00 0.00 0.00 68 1017.7
20260508143928 64 190 2.6 7.0 0.00 0.00 0.00 69 1017.8
20260508143825 64 195 2.6 7.0 0.00 0.00 0.00 68 1017.8
20260508143721 64 200 2.6 7.0 0.00 0.00 0.00 69 1017.8
20260508143355 63 196 1.7 7.0 0.00 0.00 0.00 68 1017.8
20260508143252 63 215 1.7 7.0 0.00 0.00 0.00 69 1017.8
20260508143147 63 189 1.7 7.0 0.00 0.00 0.00 70 1017.8
20260508143040 63 207 2.6 7.0 0.00 0.00 0.00 72 1017.8
20260508142715 63 192 2.6 7.0 0.00 0.00 0.00 72 1017.8
20260508142610 63 149 2.6 7.0 0.00 0.00 0.00 73 1017.8
20260508142504 62 170 2.6 7.0 0.00 0.00 0.00 70 1017.8
20260508142143 62 182 2.6 7.0 0.00 0.00 0.00 70 1017.8
20260508142037 62 173 2.6 5.2 0.00 0.00 0.00 72 1017.8
20260508141932 62 207 2.6 5.2 0.00 0.00 0.00 73 1017.8
20260508141829 62 182 2.6 5.2 0.00 0.00 0.00 73 1017.8
20260508141727 62 198 2.6 5.2 0.00 0.00 0.00 71 1017.9
20260508141624 62 163 2.6 5.2 0.00 0.00 0.00 73 1017.9
20260508141518 62 161 2.6 5.2 0.00 0.00 0.00 73 1017.9
20260508141413 62 226 2.6 5.2 0.00 0.00 0.00 75 1017.9
20260508141309 61 127 2.6 5.2 0.00 0.00 0.00 75 1018.0
20260508141207 61 202 2.6 5.2 0.00 0.00 0.00 72 1018.0
20260508141102 61 181 1.7 5.2 0.00 0.00 0.00 71 1017.9
20260508140957 61 166 1.7 5.2 0.00 0.00 0.00 72 1017.9
20260508140852 61 205 1.7 5.2 0.00 0.00 0.00 72 1017.9
20260508140748 61 202 1.7 5.2 0.00 0.00 0.00 74 1017.9
20260508140646 61 159 1.7 5.2 0.00 0.00 0.00 75 1017.9
20260508140544 61 180 1.7 5.2 0.00 0.00 0.00 74 1017.9
20260508140221 61 159 1.7 4.3 0.00 0.00 0.00 75 1018.0
20260508140114 61 178 1.7 4.3 0.00 0.00 0.00 74 1017.9
20260508140009 61 156 0.9 4.3 0.00 0.00 0.00 74 1018.0
20260508135907 61 176 0.9 4.3 0.00 0.00 0.00 75 1017.9
20260508135800 61 169 0.9 4.3 0.00 0.00 0.00 74 1017.9
20260508135657 61 173 0.0 4.3 0.00 0.00 0.00 73 1017.9
20260508135553 61 164 0.0 4.3 0.00 0.00 0.00 78 1017.9
20260508135451 61 221 0.0 2.6 0.00 0.00 0.00 80 1017.9
20260508135349 60 203 0.0 0.9 0.00 0.00 0.00 79 1017.8
20260508135245 60 225 0.9 0.0 0.00 0.00 0.00 81 1017.8
20260508135140 60 225 0.9 2.6 0.00 0.00 0.00 81 1017.7
20260508134816 60 155 0.0 2.6 0.00 0.00 0.00 80 1017.7
20260508134708 60 155 0.0 2.6 0.00 0.00 0.00 79 1017.7
20260508134605 60 155 0.0 2.6 0.00 0.00 0.00 79 1017.6
20260508134502 60 182 0.0 2.6 0.00 0.00 0.00 78 1017.7
20260508134359 60 172 0.0 2.6 0.00 0.00 0.00 80 1017.7
20260508134252 60 197 0.0 2.6 0.00 0.00 0.00 84 1017.6
20260508134145 60 139 0.0 0.0 0.00 0.00 0.00 85 1017.7
20260508134042 59 139 0.0 1.7 0.00 0.00 0.00 84 1017.7
20260508133935 59 139 0.0 1.7 0.00 0.00 0.00 83 1017.7
20260508133828 59 156 0.0 1.7 0.00 0.00 0.00 83 1017.7
20260508133722 59 196 0.0 1.7 0.00 0.00 0.00 83 1017.7
20260508133141 59 130 0.0 1.7 0.00 0.00 0.00 87 1017.6
20260508133033 59 130 0.0 1.7 0.00 0.00 0.00 88 1017.6
20260508132927 58 127 0.0 1.7 0.00 0.00 0.00 86 1017.6
20260508132559 58 127 0.0 0.9 0.00 0.00 0.00 85 1017.6
20260508132457 58 216 0.0 0.9 0.00 0.00 0.00 85 1017.6
20260508132128 58 216 0.0 0.9 0.00 0.00 0.00 86 1017.8
20260508132024 58 216 0.0 0.9 0.00 0.00 0.00 86 1017.8
20260508131916 58 216 0.0 0.9 0.00 0.00 0.00 86 1017.8
20260508131812 58 216 0.0 0.9 0.00 0.00 0.00 88 1017.9
20260508131709 58 200 0.0 0.0 0.00 0.00 0.00 89 1017.9
20260508131604 57 200 0.0 0.0 0.00 0.00 0.00 90 1017.9
20260508131457 57 200 0.0 0.0 0.00 0.00 0.00 91 1017.8
20260508131351 57 200 0.0 0.0 0.00 0.00 0.00 91 1017.8
20260508131029 56 200 0.0 0.0 0.00 0.00 0.00 91 1018.0
20260508130922 56 200 0.0 0.0 0.00 0.00 0.00 91 1018.0
20260508130818 56 200 0.0 0.0 0.00 0.00 0.00 92 1018.0
20260508130715 56 200 0.0 0.0 0.00 0.00 0.00 92 1018.1
20260508130347 55 200 0.0 1.7 0.00 0.00 0.00 91 1018.1
20260508130245 55 200 0.0 1.7 0.00 0.00 0.00 90 1018.2
20260508130142 55 200 0.0 1.7 0.00 0.00 0.00 91 1018.1
20260508130040 55 215 0.0 1.7 0.00 0.00 0.00 92 1018.1
20260508125932 55 182 0.0 0.0 0.00 0.00 0.00 95 1018.1
20260508125610 55 185 0.0 0.0 0.00 0.00 0.00 96 1018.0
20260508125506 55 185 0.0 0.0 0.00 0.00 0.00 97 1018.0
20260508125400 55 185 0.0 0.0 0.00 0.00 0.00 97 1017.9
20260508125252 54 185 0.0 0.0 0.00 0.00 0.00 97 1018.0
20260508125146 54 185 0.0 0.0 0.00 0.00 0.00 97 1018.0
20260508125039 54 185 0.0 0.0 0.00 0.00 0.00 97 1018.0
20260508124936 54 185 0.0 0.0 0.00 0.00 0.00 97 1017.9
20260508124123 53 185 0.0 0.0 0.00 0.00 0.00 98 1018.0
20260508124015 53 185 0.0 0.0 0.00 0.00 0.00 99 1018.1
20260508123910 53 185 0.0 0.0 0.00 0.00 0.00 99 1018.0
20260508123802 52 185 0.0 0.0 0.00 0.00 0.00 99 1018.0
20260508123700 52 185 0.0 0.0 0.00 0.00 0.00 99 1018.0
20260508123554 52 185 0.0 0.0 0.00 0.00 0.00 99 1018.0
20260508123229 52 185 0.0 0.0 0.00 0.00 0.00 99 1018.0
20260508123121 52 185 0.0 0.0 0.00 0.00 0.00 99 1018.0
20260508123019 51 185 0.0 0.0 0.00 0.00 0.00 99 1018.0
20260508122912 51 185 0.0 0.0 0.00 0.00 0.00 99 1018.0
20260508122805 51 185 0.0 0.0 0.00 0.00 0.00 99 1018.0
20260508122703 51 185 0.0 0.0 0.00 0.00 0.00 99 1018.0
20260508122558 51 185 0.0 0.0 0.00 0.00 0.00 99 1018.0
20260508122454 50 185 0.0 0.0 0.00 0.00 0.00 99 1017.9
20260508122347 50 185 0.0 0.0 0.00 0.00 0.00 99 1018.0
20260508122245 50 185 0.0 0.0 0.00 0.00 0.00 99 1017.9
20260508122138 50 185 0.0 0.0 0.00 0.00 0.00 99 1018.0
20260508121811 49 185 0.0 0.0 0.00 0.00 0.00 99 1017.9
20260508121705 49 185 0.0 0.0 0.00 0.00 0.00 99 1018.0
20260508121600 49 185 0.0 0.0 0.00 0.00 0.00 98 1018.0
20260508121457 49 185 0.0 0.0 0.00 0.00 0.00 98 1018.0
20260508121355 49 185 0.0 0.0 0.00 0.00 0.00 99 1018.0
20260508121248 48 185 0.0 0.0 0.00 0.00 0.00 98 1018.0
20260508120922 48 185 0.0 0.0 0.00 0.00 0.00 98 1018.1
20260508120816 48 185 0.0 0.0 0.00 0.00 0.00 98 1018.1
20260508120710 47 185 0.0 0.0 0.00 0.00 0.00 98 1018.1
20260508120603 47 185 0.0 0.0 0.00 0.00 0.00 98 1018.1
20260508120459 47 185 0.0 0.0 0.00 0.00 0.00 98 1018.1
20260508120357 47 185 0.0 0.0 0.00 0.00 0.00 98 1018.0
20260508120251 47 185 0.0 0.0 0.00 0.00 0.00 98 1018.0
20260508120149 47 185 0.0 0.0 0.00 0.00 0.00 98 1018.0
20260508120045 47 185 0.0 0.0 0.00 0.00 0.00 98 1018.0
20260508115940 47 185 0.0 0.0 0.00 0.00 0.00 98 1018.0
20260508115834 47 185 0.0 0.0 0.00 0.00 0.00 98 1018.0
20260508115728 47 185 0.0 0.0 0.00 0.00 0.00 98 1018.0
20260508115622 47 185 0.0 0.0 0.00 0.00 0.00 97 1018.0
20260508115253 47 185 0.0 0.0 0.00 0.00 0.00 97 1018.0
20260508115150 47 185 0.0 0.0 0.00 0.00 0.00 97 1018.0
20260508115047 47 185 0.0 0.0 0.00 0.00 0.00 97 1017.9
20260508114945 47 185 0.0 0.0 0.00 0.00 0.00 97 1017.8
20260508114840 47 185 0.0 0.0 0.00 0.00 0.00 97 1017.8
20260508114733 47 185 0.0 0.0 0.00 0.00 0.00 97 1017.8
20260508114630 47 185 0.0 0.0 0.00 0.00 0.00 97 1017.8
20260508114528 47 185 0.0 0.0 0.00 0.00 0.00 97 1017.8
20260508114426 47 185 0.0 0.0 0.00 0.00 0.00 97 1017.8
20260508114319 47 185 0.0 0.0 0.00 0.00 0.00 97 1017.8
20260508114212 47 185 0.0 0.0 0.00 0.00 0.00 97 1017.8
20260508114107 47 185 0.0 0.0 0.00 0.00 0.00 97 1017.8
20260508114002 47 185 0.0 0.0 0.00 0.00 0.00 97 1017.7
20260508113640 47 185 0.0 0.0 0.00 0.00 0.00 97 1017.6
20260508113314 47 185 0.0 0.0 0.00 0.00 0.00 97 1017.6
20260508113211 47 185 0.0 0.0 0.00 0.00 0.00 97 1017.6
20260508113106 47 185 0.0 0.0 0.00 0.00 0.00 97 1017.6
20260508113002 47 185 0.0 0.0 0.00 0.00 0.00 97 1017.6
20260508112857 47 185 0.0 0.0 0.00 0.00 0.00 97 1017.5
20260508112751 47 185 0.0 0.0 0.00 0.00 0.00 97 1017.6
20260508112645 47 185 0.0 0.0 0.00 0.00 0.00 97 1017.5
20260508112539 47 185 0.0 0.0 0.00 0.00 0.00 97 1017.5
20260508112436 46 185 0.0 0.0 0.00 0.00 0.00 97 1017.5
20260508112332 46 185 0.0 0.0 0.00 0.00 0.00 97 1017.5
20260508112230 47 185 0.0 0.0 0.00 0.00 0.00 97 1017.5
20260508112125 46 185 0.0 0.0 0.00 0.00 0.00 97 1017.5
20260508112021 47 185 0.0 0.0 0.00 0.00 0.00 97 1017.5
20260508111914 46 185 0.0 0.0 0.00 0.00 0.00 97 1017.5
20260508111808 46 185 0.0 0.0 0.00 0.00 0.00 97 1017.4
20260508111700 46 185 0.0 0.0 0.00 0.00 0.00 97 1017.4
20260508111553 46 185 0.0 0.0 0.00 0.00 0.00 97 1017.4
20260508111447 46 185 0.0 0.0 0.00 0.00 0.00 97 1017.3
20260508111341 46 185 0.0 0.0 0.00 0.00 0.00 97 1017.3
20260508111235 46 185 0.0 0.0 0.00 0.00 0.00 97 1017.3
20260508110914 46 185 0.0 0.0 0.00 0.00 0.00 97 1017.3
20260508110808 46 185 0.0 0.0 0.00 0.00 0.00 97 1017.2
20260508110705 46 185 0.0 0.0 0.00 0.00 0.00 97 1017.2
20260508110601 46 185 0.0 0.0 0.00 0.00 0.00 97 1017.2
20260508110453 46 185 0.0 0.0 0.00 0.00 0.00 97 1017.1
20260508110347 46 185 0.0 0.0 0.00 0.00 0.00 97 1017.1
20260508110244 46 185 0.0 0.0 0.00 0.00 0.00 97 1017.1
20260508110140 47 185 0.0 0.0 0.00 0.00 0.00 97 1017.1
20260508110037 46 185 0.0 0.0 0.00 0.00 0.00 97 1017.1
20260508105932 46 185 0.0 0.0 0.00 0.00 0.00 97 1017.1
20260508105828 46 185 0.0 0.0 0.00 0.00 0.00 97 1017.1
20260508105721 46 185 0.0 0.0 0.00 0.00 0.00 97 1017.1
20260508105616 46 185 0.0 0.0 0.00 0.00 0.00 97 1017.1
20260508105510 46 185 0.0 0.0 0.00 0.00 0.00 97 1017.1
20260508105407 46 185 0.0 0.0 0.00 0.00 0.00 97 1017.1
20260508105306 47 185 0.0 0.0 0.00 0.00 0.00 97 1017.1
20260508105202 47 185 0.0 0.0 0.00 0.00 0.00 97 1017.1
20260508105058 47 185 0.0 0.0 0.00 0.00 0.00 97 1017.2
20260508104951 47 185 0.0 0.0 0.00 0.00 0.00 97 1017.2
20260508104845 47 185 0.0 0.0 0.00 0.00 0.00 97 1017.2
20260508104740 47 185 0.0 0.0 0.00 0.00 0.00 97 1017.2
20260508104638 47 185 0.0 0.0 0.00 0.00 0.00 97 1017.2
20260508104533 47 185 0.0 0.0 0.00 0.00 0.00 97 1017.1
20260508104430 47 185 0.0 0.0 0.00 0.00 0.00 97 1017.2
20260508103848 47 185 0.0 0.0 0.00 0.00 0.00 97 1017.2
20260508103746 47 185 0.0 0.0 0.00 0.00 0.00 97 1017.2
20260508103643 47 185 0.0 0.0 0.00 0.00 0.00 97 1017.2
20260508103536 47 185 0.0 0.0 0.00 0.00 0.00 97 1017.2
20260508103430 47 185 0.0 0.0 0.00 0.00 0.00 97 1017.2
20260508103327 47 185 0.0 0.0 0.00 0.00 0.00 97 1017.2
20260508103003 47 185 0.0 0.0 0.00 0.00 0.00 97 1017.1
20260508102858 47 185 0.0 0.0 0.00 0.00 0.00 97 1017.1
20260508102756 47 185 0.0 0.0 0.00 0.00 0.00 97 1017.1
20260508102432 47 185 0.0 0.0 0.00 0.00 0.00 97 1017.1
20260508102105 47 185 0.0 0.0 0.00 0.00 0.00 97 1017.1
20260508101958 47 185 0.0 0.0 0.00 0.00 0.00 97 1017.1
20260508101852 47 185 0.0 0.0 0.00 0.00 0.00 97 1017.1
20260508101745 47 185 0.0 0.0 0.00 0.00 0.00 97 1017.2
20260508101641 47 185 0.0 0.0 0.00 0.00 0.00 97 1017.2
20260508101534 47 185 0.0 0.0 0.00 0.00 0.00 97 1017.2
20260508101428 47 185 0.0 0.0 0.00 0.00 0.00 97 1017.3
20260508101323 47 185 0.0 0.0 0.00 0.00 0.00 97 1017.2
20260508100953 47 185 0.0 0.0 0.00 0.00 0.00 97 1017.1
20260508100848 47 185 0.0 0.0 0.00 0.00 0.00 97 1017.1
20260508100742 47 185 0.0 0.0 0.00 0.00 0.00 97 1017.1
20260508100636 47 185 0.0 0.0 0.00 0.00 0.00 97 1017.0
20260508100528 47 185 0.0 0.0 0.00 0.00 0.00 97 1017.0
20260508100424 47 185 0.0 0.0 0.00 0.00 0.00 97 1017.0
20260508100321 47 185 0.0 0.0 0.00 0.00 0.00 97 1017.0
20260508100219 47 185 0.0 0.0 0.00 0.00 0.00 97 1017.0
20260508100117 47 185 0.0 0.0 0.00 0.00 0.00 97 1017.0
20260508100011 47 185 0.0 0.0 0.00 0.00 0.00 97 1016.9
20260508095906 47 185 0.0 0.0 0.00 0.00 0.00 97 1016.9
20260508095801 47 185 0.0 0.0 0.00 0.00 0.00 97 1016.9
20260508095656 47 185 0.0 0.0 0.00 0.00 0.00 97 1016.9
20260508095552 47 185 0.0 0.0 0.00 0.00 0.00 97 1016.9
20260508095448 47 185 0.0 0.0 0.00 0.00 0.00 97 1016.9
20260508095346 47 185 0.0 0.0 0.00 0.00 0.00 97 1017.0
20260508095240 47 185 0.0 0.0 0.00 0.00 0.00 97 1016.9
20260508095137 47 185 0.0 0.0 0.00 0.00 0.00 97 1016.9
20260508095030 47 185 0.0 0.0 0.00 0.00 0.00 97 1017.0
20260508094927 47 185 0.0 0.0 0.00 0.00 0.00 97 1017.0
20260508094604 47 185 0.0 0.0 0.00 0.00 0.00 96 1017.0
20260508094456 47 185 0.0 0.0 0.00 0.00 0.00 96 1017.0
20260508094353 47 185 0.0 0.0 0.00 0.00 0.00 96 1017.0
20260508094251 47 185 0.0 0.0 0.00 0.00 0.00 96 1017.0
20260508093710 47 185 0.0 0.0 0.00 0.00 0.00 96 1017.0
20260508093607 48 185 0.0 0.0 0.00 0.00 0.00 96 1017.0
20260508093501 48 185 0.0 0.0 0.00 0.00 0.00 96 1017.0
20260508093356 48 185 0.0 0.0 0.00 0.00 0.00 96 1017.0
20260508093032 48 185 0.0 0.0 0.00 0.00 0.00 97 1017.0
20260508092449 48 185 0.0 0.0 0.00 0.00 0.00 97 1016.9
20260508092344 48 185 0.0 0.0 0.00 0.00 0.00 97 1017.0
20260508092239 48 185 0.0 0.0 0.00 0.00 0.00 97 1017.0
20260508092135 48 185 0.0 0.0 0.00 0.00 0.00 97 1017.0
20260508092033 48 185 0.0 0.0 0.00 0.00 0.00 97 1017.0
20260508091927 48 185 0.0 0.0 0.00 0.00 0.00 97 1017.0
20260508091822 48 185 0.0 0.0 0.00 0.00 0.00 97 1017.0
20260508091457 48 185 0.0 0.0 0.00 0.00 0.00 97 1016.9
20260508091349 48 185 0.0 0.0 0.00 0.00 0.00 97 1016.9
20260508091025 48 185 0.0 0.0 0.00 0.00 0.00 96 1016.9
20260508090921 48 185 0.0 0.0 0.00 0.00 0.00 96 1016.9
20260508090817 48 185 0.0 0.0 0.00 0.00 0.00 96 1016.9
20260508090712 48 185 0.0 0.0 0.00 0.00 0.00 96 1016.9
20260508090605 48 185 0.0 0.0 0.00 0.00 0.00 96 1016.8
20260508090458 48 185 0.0 0.0 0.00 0.00 0.00 96 1016.9
20260508090353 48 185 0.0 0.0 0.00 0.00 0.00 96 1016.9
20260508090251 48 185 0.0 0.0 0.00 0.00 0.00 96 1016.8
20260508090148 48 185 0.0 0.0 0.00 0.00 0.00 96 1016.8
20260508090042 48 185 0.0 0.0 0.00 0.00 0.00 96 1016.8
20260508085940 48 185 0.0 0.0 0.00 0.00 0.00 97 1016.8
20260508085835 48 185 0.0 0.0 0.00 0.00 0.00 96 1016.7
20260508085732 48 185 0.0 0.0 0.00 0.00 0.00 97 1016.7
20260508085629 48 185 0.0 0.0 0.00 0.00 0.00 96 1016.7
20260508085308 48 185 0.0 0.0 0.00 0.00 0.00 96 1016.8
20260508085202 48 185 0.0 0.0 0.00 0.00 0.00 97 1016.8
20260508085100 48 185 0.0 0.0 0.00 0.00 0.00 96 1016.8
20260508084953 48 185 0.0 0.0 0.00 0.00 0.00 96 1016.7
20260508084634 48 185 0.0 0.0 0.00 0.00 0.00 96 1016.7
20260508084532 48 185 0.0 0.0 0.00 0.00 0.00 96 1016.7
20260508084428 48 185 0.0 0.0 0.00 0.00 0.00 96 1016.6
20260508084326 48 185 0.0 0.0 0.00 0.00 0.00 96 1016.7
20260508084223 48 185 0.0 0.0 0.00 0.00 0.00 96 1016.7
20260508084117 48 185 0.0 0.0 0.00 0.00 0.00 96 1016.7
20260508084014 48 185 0.0 0.0 0.00 0.00 0.00 96 1016.7
20260508083908 48 185 0.0 0.0 0.00 0.00 0.00 96 1016.7
20260508083805 48 185 0.0 0.0 0.00 0.00 0.00 96 1016.7
20260508083702 48 185 0.0 0.0 0.00 0.00 0.00 96 1016.7
20260508083554 49 185 0.0 0.0 0.00 0.00 0.00 96 1016.6
20260508083449 49 185 0.0 0.0 0.00 0.00 0.00 96 1016.6
20260508083342 49 185 0.0 0.0 0.00 0.00 0.00 96 1016.6
20260508083236 49 185 0.0 0.0 0.00 0.00 0.00 96 1016.6
20260508083130 49 185 0.0 0.0 0.00 0.00 0.00 96 1016.7
20260508083026 49 185 0.0 0.0 0.00 0.00 0.00 96 1016.6
20260508082659 49 185 0.0 0.0 0.00 0.00 0.00 96 1016.6
20260508082554 49 185 0.0 0.0 0.00 0.00 0.00 96 1016.6
20260508082452 49 185 0.0 0.0 0.00 0.00 0.00 96 1016.6
20260508082346 49 185 0.0 0.0 0.00 0.00 0.00 96 1016.6
20260508082239 49 185 0.0 0.0 0.00 0.00 0.00 96 1016.6
20260508082136 49 185 0.0 0.0 0.00 0.00 0.00 96 1016.6
20260508082034 49 185 0.0 0.0 0.00 0.00 0.00 96 1016.6
20260508081927 49 185 0.0 0.0 0.00 0.00 0.00 96 1016.6
20260508081825 49 185 0.0 0.0 0.00 0.00 0.00 96 1016.6
20260508081723 49 185 0.0 0.0 0.00 0.00 0.00 96 1016.6
20260508081621 49 185 0.0 0.0 0.00 0.00 0.00 96 1016.6
20260508081514 49 185 0.0 0.0 0.00 0.00 0.00 96 1016.6
20260508081407 49 185 0.0 0.0 0.00 0.00 0.00 96 1016.5
20260508081300 49 185 0.0 0.0 0.00 0.00 0.00 96 1016.6
20260508081156 49 185 0.0 0.0 0.00 0.00 0.00 96 1016.5
20260508081049 49 185 0.0 0.0 0.00 0.00 0.00 96 1016.5
20260508080947 49 185 0.0 0.0 0.00 0.00 0.00 96 1016.5
20260508080840 49 185 0.0 0.0 0.00 0.00 0.00 96 1016.5
20260508080733 49 185 0.0 0.0 0.00 0.00 0.00 96 1016.6
20260508080627 49 185 0.0 0.0 0.00 0.00 0.00 96 1016.6
20260508080522 49 185 0.0 0.0 0.00 0.00 0.00 96 1016.6
20260508080417 49 185 0.0 0.0 0.00 0.00 0.00 96 1016.6
20260508080309 49 185 0.0 0.0 0.00 0.00 0.00 96 1016.7
20260508080204 49 185 0.0 0.0 0.00 0.00 0.00 96 1016.7
20260508075837 49 185 0.0 0.0 0.00 0.00 0.00 96 1016.7
20260508075733 49 185 0.0 0.0 0.00 0.00 0.00 96 1016.7
20260508075628 49 185 0.0 0.0 0.00 0.00 0.00 96 1016.7
20260508075521 49 185 0.0 0.0 0.00 0.00 0.00 96 1016.7
20260508075413 49 185 0.0 0.0 0.00 0.00 0.00 96 1016.7
20260508075308 49 185 0.0 0.0 0.00 0.00 0.00 96 1016.7
20260508075159 49 185 0.0 0.0 0.00 0.00 0.00 96 1016.7
20260508074616 49 185 0.0 0.0 0.00 0.00 0.00 96 1016.7
20260508074513 49 185 0.0 0.0 0.00 0.00 0.00 96 1016.8
20260508074410 49 185 0.0 0.0 0.00 0.00 0.00 96 1016.7
20260508074306 49 185 0.0 0.0 0.00 0.00 0.00 96 1016.8
20260508074201 50 185 0.0 0.0 0.00 0.00 0.00 96 1016.7
20260508073832 50 185 0.0 0.0 0.00 0.00 0.00 96 1016.8
20260508073506 50 185 0.0 0.0 0.00 0.00 0.00 96 1016.8
20260508073403 50 185 0.0 0.0 0.00 0.00 0.00 96 1016.8
20260508073301 50 185 0.0 0.0 0.00 0.00 0.00 96 1016.8
20260508073153 50 185 0.0 0.0 0.00 0.00 0.00 96 1016.8
20260508073045 50 185 0.0 0.0 0.00 0.00 0.00 96 1016.7
20260508072943 50 185 0.0 0.0 0.00 0.00 0.00 96 1016.8
20260508072836 50 185 0.0 0.0 0.00 0.00 0.00 96 1016.8
20260508072733 50 185 0.0 0.0 0.00 0.00 0.00 96 1016.8
20260508072629 50 185 0.0 0.0 0.00 0.00 0.00 96 1016.8
20260508072523 50 185 0.0 0.0 0.00 0.00 0.00 96 1016.8
20260508072200 50 185 0.0 0.0 0.00 0.00 0.00 96 1016.9
20260508072055 50 185 0.0 0.0 0.00 0.00 0.00 96 1016.9
20260508071948 50 185 0.0 0.0 0.00 0.00 0.00 96 1016.9
20260508071843 50 185 0.0 0.0 0.00 0.00 0.00 96 1016.9
20260508071520 50 185 0.0 0.0 0.00 0.00 0.00 96 1016.9
20260508071416 50 185 0.0 0.0 0.00 0.00 0.00 96 1016.9
20260508071313 50 185 0.0 0.0 0.00 0.00 0.00 96 1016.9
20260508071206 50 185 0.0 0.0 0.00 0.00 0.00 96 1017.0
20260508071059 50 185 0.0 0.0 0.00 0.00 0.00 96 1017.0
20260508070952 50 185 0.0 0.0 0.00 0.00 0.00 96 1017.0
20260508070849 50 185 0.0 0.0 0.00 0.00 0.00 96 1017.0
20260508070745 50 185 0.0 0.0 0.00 0.00 0.00 96 1016.9
20260508070424 50 185 0.0 0.0 0.00 0.00 0.00 96 1016.9
20260508070322 50 185 0.0 0.0 0.00 0.00 0.00 96 1016.9
20260508070217 50 185 0.0 0.0 0.00 0.00 0.00 96 1016.9
20260508070114 50 185 0.0 0.0 0.00 0.00 0.00 96 1016.9
20260508070007 50 185 0.0 0.0 0.00 0.00 0.00 96 1016.9
20260508065903 50 185 0.0 0.0 0.00 0.00 0.00 96 1016.9
20260508065757 50 185 0.0 0.9 0.00 0.00 0.00 96 1016.9
20260508065654 50 185 0.0 0.9 0.00 0.00 0.00 96 1016.8
20260508065552 50 185 0.0 0.0 0.00 0.00 0.00 96 1016.9
20260508065010 50 185 0.0 0.0 0.00 0.00 0.00 96 1016.9
20260508064905 50 185 0.0 0.0 0.00 0.00 0.00 96 1016.9
20260508064759 50 185 0.0 0.0 0.00 0.00 0.00 96 1017.0
20260508064432 50 185 0.0 0.0 0.00 0.00 0.00 96 1017.0
20260508064327 50 185 0.0 0.0 0.00 0.00 0.00 96 1017.1
20260508064220 50 185 0.0 0.0 0.00 0.00 0.00 96 1017.1
20260508064115 50 185 0.0 0.0 0.00 0.00 0.00 96 1017.1
20260508064010 51 185 0.0 0.0 0.00 0.00 0.00 96 1017.1
20260508063903 51 185 0.0 0.0 0.00 0.00 0.00 96 1017.2
20260508063758 51 185 0.0 0.0 0.00 0.00 0.00 96 1017.2
20260508063656 51 185 0.0 0.0 0.00 0.00 0.00 96 1017.3
20260508063333 51 185 0.0 0.0 0.00 0.00 0.00 96 1017.2
20260508063230 51 185 0.0 0.0 0.00 0.00 0.00 95 1017.3
20260508063125 51 185 0.0 0.0 0.00 0.00 0.00 95 1017.3
20260508063021 51 185 0.0 0.0 0.00 0.00 0.00 95 1017.2
20260508062658 51 185 0.0 0.0 0.00 0.00 0.00 95 1017.3
20260508062552 51 185 0.0 0.0 0.00 0.00 0.00 95 1017.3
20260508061747 51 185 0.0 0.0 0.00 0.00 0.00 95 1017.4
20260508061641 51 185 0.0 0.0 0.00 0.00 0.00 95 1017.5
20260508061535 51 185 0.0 0.0 0.00 0.00 0.00 95 1017.5
20260508061429 51 185 0.0 0.0 0.00 0.00 0.00 95 1017.5
20260508061322 51 185 0.0 0.0 0.00 0.00 0.00 95 1017.5
20260508061218 51 185 0.0 0.0 0.00 0.00 0.00 95 1017.5
20260508061115 51 185 0.0 0.0 0.00 0.00 0.00 95 1017.5
20260508061013 51 185 0.0 0.0 0.00 0.00 0.00 95 1017.5
20260508060906 51 185 0.0 0.0 0.00 0.00 0.00 95 1017.4
20260508060321 51 185 0.0 0.0 0.00 0.00 0.00 95 1017.4
20260508060218 51 185 0.0 0.0 0.00 0.00 0.00 95 1017.4
20260508060111 51 185 0.0 0.0 0.00 0.00 0.00 95 1017.5
20260508060005 51 185 0.0 0.0 0.00 0.00 0.00 95 1017.4
20260508055858 51 185 0.0 0.0 0.00 0.00 0.00 95 1017.4
20260508055752 51 185 0.0 0.0 0.00 0.00 0.00 95 1017.3
20260508055647 51 185 0.0 0.0 0.00 0.00 0.00 95 1017.3
20260508055542 51 185 0.0 0.0 0.00 0.00 0.00 95 1017.3
20260508055216 51 185 0.0 0.0 0.00 0.00 0.00 95 1017.4
20260508054639 51 185 0.0 0.0 0.00 0.00 0.00 95 1017.4
20260508054536 51 185 0.0 0.0 0.00 0.00 0.00 95 1017.3
20260508054428 51 185 0.0 0.0 0.00 0.00 0.00 95 1017.3
20260508054323 51 185 0.0 0.0 0.00 0.00 0.00 95 1017.3
20260508054219 51 185 0.0 0.0 0.00 0.00 0.00 95 1017.2
20260508053854 51 185 0.0 0.9 0.00 0.00 0.00 95 1017.3
20260508053749 51 185 0.0 0.9 0.00 0.00 0.00 95 1017.3
20260508053647 51 185 0.0 0.9 0.00 0.00 0.00 95 1017.3
20260508053319 51 185 0.0 0.0 0.00 0.00 0.00 95 1017.3
20260508052729 51 185 0.0 0.0 0.00 0.00 0.00 94 1017.0
20260508052621 51 185 0.0 0.0 0.00 0.00 0.00 95 1017.0
20260508052517 51 185 0.0 0.0 0.00 0.00 0.00 94 1017.0
20260508052415 51 185 0.0 0.0 0.00 0.00 0.00 94 1017.0
20260508052311 51 185 0.0 0.0 0.00 0.00 0.00 94 1017.0
20260508052207 51 185 0.0 0.0 0.00 0.00 0.00 94 1017.0
20260508051844 51 185 0.0 0.0 0.00 0.00 0.00 94 1017.1
20260508051737 51 185 0.0 0.0 0.00 0.00 0.00 94 1017.1
20260508051634 51 185 0.0 0.0 0.00 0.00 0.00 94 1017.3
20260508051531 51 185 0.0 0.0 0.00 0.00 0.00 94 1017.3
20260508051427 51 185 0.0 0.0 0.00 0.00 0.00 94 1017.3
20260508051323 51 185 0.0 0.0 0.00 0.00 0.00 94 1017.2
20260508050959 51 185 0.0 0.0 0.00 0.00 0.00 94 1017.2
20260508050852 51 185 0.0 0.0 0.00 0.00 0.00 94 1017.3
20260508050745 51 185 0.0 0.0 0.00 0.00 0.00 94 1017.4
20260508050639 51 185 0.0 0.0 0.00 0.00 0.00 94 1017.3
20260508050535 51 185 0.0 0.0 0.00 0.00 0.00 94 1017.3
20260508050427 51 185 0.0 0.0 0.00 0.00 0.00 94 1017.4
20260508050324 51 185 0.0 0.0 0.00 0.00 0.00 94 1017.4
20260508050219 51 185 0.0 0.0 0.00 0.00 0.00 94 1017.4
20260508050117 51 185 0.0 0.0 0.00 0.00 0.00 94 1017.4
20260508050015 51 185 0.0 0.0 0.00 0.00 0.00 94 1017.4
20260508045652 51 185 0.0 0.9 0.00 0.00 0.00 93 1017.1
20260508045549 51 185 0.0 0.0 0.00 0.00 0.00 93 1017.1
20260508045444 52 185 0.0 0.0 0.00 0.00 0.00 93 1017.1
20260508045341 52 185 0.0 0.0 0.00 0.00 0.00 93 1017.2
20260508045235 52 185 0.0 0.0 0.00 0.00 0.00 93 1017.1
20260508045129 52 185 0.0 0.0 0.00 0.00 0.00 93 1017.2
20260508045021 52 185 0.0 0.0 0.00 0.00 0.00 93 1017.3
20260508044917 52 185 0.0 0.0 0.00 0.00 0.00 93 1017.3
20260508044814 52 185 0.0 0.0 0.00 0.00 0.00 93 1017.3
20260508044711 52 185 0.0 0.0 0.00 0.00 0.00 93 1017.4
20260508044610 52 185 0.0 0.0 0.00 0.00 0.00 93 1017.3
20260508044503 52 185 0.0 0.0 0.00 0.00 0.00 93 1017.3
20260508044357 52 185 0.0 0.0 0.00 0.00 0.00 93 1017.3
20260508044252 52 185 0.0 0.0 0.00 0.00 0.00 93 1017.3
20260508044146 52 185 0.0 0.0 0.00 0.00 0.00 93 1017.3
20260508044044 52 185 0.0 0.0 0.00 0.00 0.00 93 1017.3
20260508043938 52 185 0.0 0.0 0.00 0.00 0.00 93 1017.3
20260508043830 52 185 0.0 0.0 0.00 0.00 0.00 93 1017.3
20260508043726 52 185 0.0 0.0 0.00 0.00 0.00 93 1017.3
20260508043622 52 185 0.0 0.0 0.00 0.00 0.00 93 1017.4
20260508043519 52 185 0.0 0.0 0.00 0.00 0.00 93 1017.4
20260508043151 52 185 0.0 0.0 0.00 0.00 0.00 93 1017.3
20260508043047 52 185 0.0 0.0 0.00 0.00 0.00 93 1017.3
20260508042940 52 185 0.0 0.0 0.00 0.00 0.00 92 1017.3
20260508042836 52 185 0.0 0.0 0.00 0.00 0.00 92 1017.3
20260508042733 52 185 0.0 0.0 0.00 0.00 0.00 92 1017.3
20260508042628 52 185 0.0 0.0 0.00 0.00 0.00 92 1017.3
20260508042523 52 185 0.0 0.0 0.00 0.00 0.00 92 1017.3
20260508042419 52 185 0.0 0.0 0.00 0.00 0.00 92 1017.3
20260508042316 52 185 0.0 0.0 0.00 0.00 0.00 92 1017.3
20260508042213 52 185 0.0 0.0 0.00 0.00 0.00 92 1017.3
20260508042109 52 185 0.0 0.0 0.00 0.00 0.00 92 1017.3
20260508042005 52 185 0.0 0.0 0.00 0.00 0.00 92 1017.3
20260508041859 52 185 0.0 0.0 0.00 0.00 0.00 92 1017.3
20260508041752 52 185 0.0 0.0 0.00 0.00 0.00 92 1017.3
20260508041647 52 185 0.0 0.0 0.00 0.00 0.00 92 1017.3
20260508041542 52 185 0.0 0.0 0.00 0.00 0.00 92 1017.4
20260508041440 52 185 0.0 0.0 0.00 0.00 0.00 92 1017.4
20260508041335 52 185 0.0 0.0 0.00 0.00 0.00 92 1017.4
20260508041230 52 185 0.0 0.0 0.00 0.00 0.00 92 1017.4
20260508040649 53 185 0.0 0.0 0.00 0.00 0.00 91 1017.4
20260508040323 53 185 0.0 0.0 0.00 0.00 0.00 91 1017.5
20260508040219 53 185 0.0 0.0 0.00 0.00 0.00 91 1017.4
20260508035856 53 185 0.0 0.0 0.00 0.00 0.00 91 1017.4
20260508035534 53 185 0.0 0.0 0.00 0.00 0.00 90 1017.5
20260508035432 53 185 0.0 0.0 0.00 0.00 0.00 90 1017.5
20260508035326 53 185 0.0 0.0 0.00 0.01 0.00 90 1017.5
20260508035222 53 185 0.0 0.0 0.00 0.01 0.00 90 1017.5
20260508035118 53 185 0.0 0.0 0.00 0.01 0.00 90 1017.5
20260508035015 53 185 0.0 0.0 0.00 0.01 0.00 90 1017.5
20260508034912 53 185 0.0 0.0 0.00 0.01 0.00 90 1017.5
20260508034809 53 185 0.0 0.0 0.00 0.01 0.00 90 1017.6
20260508034703 53 185 0.0 0.0 0.00 0.01 0.00 90 1017.6
20260508034556 53 185 0.0 0.0 0.00 0.01 0.00 90 1017.6
20260508034451 53 185 0.0 0.0 0.00 0.01 0.00 90 1017.6
20260508034346 53 185 0.0 0.0 0.00 0.01 0.00 90 1017.6
20260508034240 53 185 0.0 0.0 0.00 0.01 0.00 90 1017.5
20260508034132 53 185 0.0 0.0 0.00 0.01 0.00 90 1017.5
20260508033812 53 185 0.0 0.0 0.00 0.01 0.00 90 1017.5
20260508033448 53 185 0.0 0.0 0.00 0.01 0.00 90 1017.4
20260508033343 53 185 0.0 0.0 0.00 0.01 0.00 90 1017.5
20260508033236 53 185 0.0 0.0 0.00 0.01 0.00 89 1017.4
20260508033130 53 185 0.0 0.0 0.00 0.01 0.00 90 1017.5
20260508033022 53 185 0.0 0.0 0.00 0.01 0.00 89 1017.5
20260508032916 53 185 0.0 0.0 0.00 0.01 0.00 89 1017.4
20260508032812 53 185 0.0 0.0 0.00 0.01 0.00 89 1017.3
20260508032711 53 185 0.0 0.0 0.00 0.01 0.00 89 1017.3
20260508031908 53 185 0.0 0.0 0.00 0.01 0.00 89 1017.2
20260508031801 53 185 0.0 0.0 0.00 0.01 0.00 89 1017.2
20260508031659 53 185 0.0 0.0 0.00 0.01 0.00 89 1017.2
20260508031553 53 185 0.0 0.0 0.00 0.01 0.00 89 1017.3
20260508031446 53 185 0.0 0.0 0.00 0.01 0.00 89 1017.3
20260508031341 53 185 0.0 0.0 0.00 0.01 0.00 89 1017.4
20260508031016 53 185 0.0 0.0 0.00 0.01 0.00 88 1017.4
20260508030912 54 185 0.0 0.0 0.00 0.01 0.00 88 1017.4
20260508030806 54 185 0.0 0.0 0.00 0.01 0.00 88 1017.5
20260508030659 54 185 0.0 0.0 0.00 0.01 0.00 88 1017.5
20260508030552 54 185 0.0 0.0 0.00 0.01 0.00 88 1017.5
20260508030446 54 185 0.0 0.0 0.00 0.01 0.00 87 1017.4
20260508030341 54 185 0.0 0.0 0.00 0.01 0.00 87 1017.5
20260508030237 54 185 0.0 0.0 0.00 0.01 0.00 87 1017.5
20260508030135 54 185 0.0 0.0 0.00 0.01 0.00 87 1017.5
20260508030029 54 185 0.0 0.0 0.00 0.01 0.00 86 1017.5
20260508025701 54 185 0.0 0.0 0.00 0.01 0.00 87 1017.4
20260508025559 54 185 0.0 0.0 0.00 0.01 0.00 87 1017.4
20260508025451 54 185 0.0 0.0 0.00 0.01 0.00 86 1017.4
20260508025345 54 185 0.0 0.0 0.00 0.01 0.00 86 1017.4
20260508025022 54 185 0.0 0.0 0.00 0.01 0.00 86 1017.3
20260508024916 54 185 0.0 0.0 0.00 0.01 0.00 86 1017.3
20260508024809 54 185 0.0 0.0 0.00 0.01 0.00 86 1017.2
20260508024701 54 185 0.0 0.0 0.00 0.01 0.00 85 1017.1
20260508024559 54 185 0.0 0.0 0.00 0.01 0.00 85 1017.1
20260508024454 54 185 0.0 0.0 0.00 0.01 0.00 86 1017.2
20260508024127 54 185 0.0 0.0 0.00 0.01 0.00 86 1017.3
20260508024022 55 185 0.0 0.0 0.00 0.01 0.00 86 1017.3
20260508023919 55 185 0.0 0.0 0.00 0.01 0.00 86 1017.3
20260508023815 55 185 0.0 0.0 0.00 0.01 0.00 86 1017.4
20260508023710 55 185 0.0 0.0 0.00 0.01 0.00 86 1017.3
20260508023605 55 185 0.0 0.0 0.00 0.01 0.00 86 1017.3
20260508023457 55 185 0.0 0.0 0.00 0.01 0.00 86 1017.3
20260508022917 55 185 0.0 0.0 0.00 0.01 0.00 85 1017.1
20260508022815 55 185 0.0 0.0 0.00 0.01 0.00 85 1017.1